Home   Weather   Walsall   Past weeks

Flag for United Kingdom Past Weather in Walsall, England, United Kingdom — Yesterday and Last 2 Weeks

Now
57 °F

Rain. Partly cloudy.


Feels Like: 56 °F
Forecast: 49 / 58 °F
Wind: 7 mph from West

Location: Birmingham / Airport

Current Time: Sep 25, 2016 at 4:44:45 AM

Latest Report: Sep 25, 2016 at 3:50 AM


Visibility: 2 mi

Pressure: 29.74 "Hg

Humidity: 100%

Dew Point: 57 °F

Location of WalsallLocation

Past Weather in Walsall — Graph

°F

Walsall Temperature Yesterday

Maximum temperature yesterday: 68 °F (at 12:50 PM)
Minimum temperature yesterday: 46 °F (at 12:50 AM)
Average temperature yesterday: 60 °F

High & Low Weather Summary for the Past Weeks

 TemperatureHumidityPressure
High81 °F (Sep 13, 12:50 PM)100% (Sep 10, 3:20 AM)30.24 "Hg (Sep 10, 3:20 AM)
Low45 °F (Sep 23, 4:20 AM)51% (Sep 13, 12:50 PM)29.68 "Hg (Sep 25, 3:20 AM)
Average60 °F84%30.00 "Hg
* Reported Sep 10 3:20 AM — Sep 25 3:20 AM, Walsall, Weather by CustomWeather, © 2016

Note: Actual official high and low records may vary slightly from our data, if they occured in-between our weather recording intervals... More about our weather records

Advertising

Walsall Weather History for the Previous 24 Hours

Scroll right to see more
 ConditionsComfort  
Time TempWeatherWind HumidityBarometerVisibility
3:20 AM
Sun, Sep 25
63 °FLight rain. Partly cloudy.13 mph88%29.68 "HgN/A
2:50 AM63 °FLight rain. Passing clouds.10 mph83%29.71 "HgN/A
2:20 AM63 °FPassing clouds.10 mph77%29.71 "HgN/A
1:50 AM61 °FPassing clouds.9 mph83%29.74 "HgN/A
1:20 AM61 °FPassing clouds.8 mph83%29.74 "HgN/A
12:50 AM61 °FClear.8 mph83%29.74 "Hg10 mi
12:20 AM59 °FClear.8 mph88%29.77 "Hg10 mi
11:50 PM
Sat, Sep 24
63 °FPassing clouds.9 mph83%29.77 "HgN/A
11:20 PM63 °FPassing clouds.10 mph83%29.80 "HgN/A
10:50 PM63 °FLight rain. Passing clouds.9 mph83%29.80 "HgN/A
10:20 PM63 °FPassing clouds.8 mph77%29.83 "HgN/A
9:50 PM63 °FPassing clouds.8 mph77%29.83 "HgN/A
9:20 PM63 °FPassing clouds.8 mph77%29.83 "HgN/A
8:50 PM63 °FPassing clouds.12 mph77%29.83 "HgN/A
8:20 PM63 °FPassing clouds.12 mph77%29.83 "HgN/A
7:50 PM63 °FPassing clouds.12 mph77%29.83 "HgN/A
7:20 PM64 °FClear.15 mph73%29.83 "Hg10 mi
6:50 PM64 °FScattered clouds.13 mph78%29.83 "HgN/A
6:20 PM66 °FScattered clouds.12 mph68%29.86 "HgN/A
5:50 PM66 °FScattered clouds.12 mph68%29.86 "HgN/A
5:20 PM66 °FScattered clouds.13 mph68%29.86 "HgN/A
4:50 PM66 °FScattered clouds.15 mph68%29.86 "HgN/A
4:20 PM68 °FScattered clouds.17 mph64%29.89 "HgN/A
3:50 PM68 °FScattered clouds.14 mph64%29.89 "HgN/A
3:20 PM68 °FScattered clouds.16 mph60%29.89 "HgN/A
2:50 PM68 °FScattered clouds.14 mph60%29.92 "HgN/A
2:20 PM68 °FPassing clouds.15 mph60%29.92 "HgN/A
1:50 PM68 °FPassing clouds.15 mph60%29.92 "HgN/A
1:20 PM68 °FPassing clouds.13 mph60%29.92 "HgN/A
12:50 PM68 °FPassing clouds.16 mph60%29.92 "HgN/A
12:20 PM66 °FPassing clouds.15 mph68%29.95 "HgN/A
11:50 AM66 °FPassing clouds.14 mph68%29.95 "HgN/A
11:20 AM64 °FPassing clouds.9 mph78%29.98 "HgN/A
10:50 AM63 °FPassing clouds.13 mph77%29.98 "HgN/A
10:20 AM61 °FSunny.12 mph83%29.98 "Hg10 mi
9:50 AM61 °FSunny.12 mph83%30.01 "Hg10 mi
9:20 AM59 °FSunny.10 mph88%30.01 "Hg10 mi
8:50 AM59 °FPassing clouds.7 mph88%30.01 "HgN/A
8:20 AM57 °FSunny.9 mph94%30.01 "Hg10 mi
7:50 AM57 °FSunny.10 mph88%30.01 "Hg10 mi
7:20 AM55 °FSunny.7 mph94%30.01 "Hg10 mi
6:50 AM54 °FClear.6 mph100%30.01 "Hg10 mi
6:20 AM52 °FClear.6 mph100%30.01 "Hg10 mi
5:50 AM52 °FClear.7 mph100%30.01 "Hg10 mi
5:20 AM50 °FClear.5 mph100%30.04 "Hg10 mi
4:50 AM50 °FClear.7 mph100%30.04 "Hg10 mi
4:20 AM50 °FClear.5 mph100%30.04 "Hg10 mi
Weather by CustomWeather, © 2016

See weather overviewHow to use our weather pages